Location: Shandelee
(41.8790°N, 74.8713°W)
Time: 04:23:10
(UTC+00:00)

Cosmos 1939 Rocket - Pass Details

Date: 29 October 2020
Orbit: 532 x 584 km, 97.4° (Epoch: 23 November)

Event Time Altitude Azimuth Distance (km) Brightness Sun altitude
Rises 23:16:30 0° 171° (S) 2,728 6.3 -15.3°
Reaches altitude 10° 23:18:39 10° 174° (S) 1,830 5.5 -15.7°
Maximum altitude 23:22:35 71° 258° (WSW) 583 3.1 -16.5°
Drops below altitude 10° 23:26:31 10° 344° (NNW) 1,816 5.6 -17.2°
Sets 23:28:38 0° 346° (NNW) 2,706 6.5 -17.6°
